264  
ASUS41 KPHI 171812  
RWRPHI  
 
REGIONAL WEATHER ROUNDUP  
NATIONAL WEATHER SERVICE MOUNT HOLLY NJ  
200 PM EDT TUE OCT 17 2017  
 
NOTE: "FAIR" INDICATES FEW OR NO CLOUDS BELOW 12,000 FEET WITH NO  
SIGNIFICANT WEATHER AND/OR S TO VISIBILITY
.  
 
* = STATION DOES NOT REPORT PRECIPITATION (E.G. RAIN, SNOW, ETC.)  
OR FOG.
 
 
NJZ015>026-171900-  
SOUTHERN NEW JERSEY  
 
CITY SKY/WX TMP DP RH WIND PRES REMARKS
 
POMONA SUNNY 59 36 42 N5 30.30F  
6HR MIN TEMP: 40; 6HR MAX TEMP: 59;  
 
WILDWOOD* SUNNY 55 36 48 VRB6 30.32F  
MILLVILLE SUNNY 60 37 42 VRB7 30.31F  
WRIGHTSTOWN SUNNY 57 34 41 NW7 30.29F  
MOUNT HOLLY SUNNY 58 34 40 VRB3 30.30F  
TRENTON SUNNY 58 35 42 W6 30.29F  
6HR MIN TEMP: 40; 6HR MAX TEMP: 58;  
 

 
NJZ001>014-171900-  
NORTHERN NEW JERSEY  
 
CITY SKY/WX TMP DP RH WIND PRES REMARKS
 
SUSSEX SUNNY 57 35 43 VRB7 30.27F  
ANDOVER* N/A 57 31 37 CALM 30.28F  
MORRISTOWN SUNNY 57 32 38 CALM 30.29F  
NEWARK SUNNY 59 31 34 CALM 30.29F  
TETERBORO SUNNY 57 30 35 NW5 30.28F  
CALDWELL SUNNY 57 32 38 W7 30.29F  
SOMERVILLE SUNNY 60 36 40 NW7 30.28F  
ALLAIRE* SUNNY 58 32 37 NW7 30.31F  
TOMS RIVER* N/A 57 34 41 W5 30.30F  
 

 
PAZ043-044-047-054-055-060>062-066>071-171900-  
EASTERN PENNSYLVANIA  
 
CITY SKY/WX TMP DP RH WIND PRES REMARKS
 
PHILADELPHIA SUNNY 58 31 35 NW7 30.31F  
6HR MIN TEMP: 43; 6HR MAX TEMP: 58;  
 
NORTH PHILA SUNNY 59 33 37 CALM 30.32F  
BLUE BELL* SUNNY 55 34 44 W3 30.32F  
DOYLESTOWN SUNNY 58 34 40 N6 30.29F  
QUAKERTOWN* SUNNY 57 34 41 NW6 30.30F  
PERKASIE* FAIR 55 32 41 W5 30.31F  
POTTSTOWN SUNNY 56 34 43 VRB6 30.32F  
LANCASTER SUNNY 57 36 45 VRB6 30.31F  
COATESVILLE SUNNY 55 34 44 VRB6 30.32F  
READING SUNNY 58 36 43 VRB5 30.30F  
6HR MIN TEMP: 36; 6HR MAX TEMP: 58;  
 
ALLENTOWN SUNNY 58 33 39 VRB3 30.30F  
6HR MIN TEMP: 40; 6HR MAX TEMP: 59;  
 
MOUNT POCONO SUNNY 54 24 31 SW3 30.25F  
6HR MIN TEMP: 33; 6HR MAX TEMP: 54;  
 
HAZLETON SUNNY 57 28 33 NW3 30.30F  
LEHIGHTON FAIR 59 32 36 CALM 30.29F  
WILKES BARRE SUNNY 55 34 45 VRB5 30.28F  
 

 
DEZALL-MDZ008-012-015-019-020-171900-  
DELAWARE AND EASTERN MARYLAND  
 
CITY SKY/WX TMP DP RH WIND PRES REMARKS
 
WILMINGTON SUNNY 59 33 37 VRB3 30.32F  
6HR MIN TEMP: 41; 6HR MAX TEMP: 59;  
 
DOVER SUNNY 59 36 41 N7 30.31F  
GEORGETOWN SUNNY 57 35 43 E6 30.33F  
6HR MIN TEMP: 43; 6HR MAX TEMP: 58;  
 
EASTON SUNNY 59 32 36 N5 30.36F  
ABERDEEN SUNNY 58 33 39 W3 30.32F  
PATUXENT MOSUNNY 58 39 49 N10 30.33F  
OCEAN CITY SUNNY 58 39 49 NE9 30.32F  
WALLOPS ISLAND MOSUNNY 58 43 57 NE9 30.32F  
CAMBRIDGE SUNNY 57 36 44 N8 30.33F  
SALISBURY SUNNY 59 38 45 N6 30.32F  
 

 
PAZ001-021-NYZ056-072-MDZ011-DCZ001-171900-  
OTHER NEARBY LOCATIONS  
 
CITY SKY/WX TMP DP RH WIND PRES REMARKS
 
HARRISBURG SUNNY 59 33 37 W5 30.30F  
STATE COLLEGE MOSUNNY 59 36 41 SW10 30.28F  
WILLIAMSPORT SUNNY 58 37 45 SE3 30.27F  
BINGHAMTON SUNNY 52 28 39 SW9 30.23F  
NEW YORK CITY SUNNY 56 29 35 VRB5 30.31F  
BALTIMORE MOSUNNY 59 32 36 VRB3 30.32F  
WASHINGTON DC SUNNY 60 33 36 NE5 30.34F  
 

 
 
 
CLICK HERE TO GO TO PREVIOUS BULLETINS.

The Nexlab PA Page
The Nexlab NJ Page
The Nexlab DE Page
The Nexlab MD Page Main Text Page